CZ-6 R/B, 44784

Orbit data source: Space-Track

CZ-6 R/B, 44784 is space debris in LEO originally from a launch on Wed, 13 Nov 2019 UTC launched from the Taiyaun Space Center, China (TSC). Debris objects in space refer to the collection of defunct objects orbiting the Earth. Examples of debris include non-operational satellites, rocket bodies, and fragments generated from explosions, collisions, or faulty payload assembly.

Loading next visibility...
Identifier
44784, 2019-076F
Orbit
LEO
Country
Flag of CNCN / PRC
Related business
Manufacturer
SAST
Mission
Spacecraft
Bus & Motor
CZ-6 STAGE 3, YF-85 X 4
Mass
~1,000 kg wet, ~1,000 kg dry
Launch date (UTC)
2019-11-13 (6 years ago)
Launch vehicle
Unknown
Launch site
Taiyaun Space Center, China (TSC)
Object type
Payload
Rocket body
Debris
Shape & HBR
Cyl, 2.0 m
Radar Cross Section
9.057 m², Large (>1 m²)

Expand to show TLE details & history
Last TLE update: 1 day ago

TLE from 1 day ago
0 CZ-6 R/B
1 44784U 19076F   25259.78547025  .00000170  00000-0  14202-3 0  9991
2 44784  45.0070  66.2945 0088681 286.8502  72.2628 14.17984772302887
Epoch: 2025-09-16T18:51Z
TLE epoch observation values (Epoch: 2025-09-16T18:51:04.629Z)
Latitude
-0.00001°
Longitude
147.55442°
Altitude
813.214 km
Speed
7.458 km/s
True Right ascension
04h 25m 10s
True Declination
0° 00' 00"
Sunlit
Object was in daylight at epoch
Visualization orbit readout
Latitude
Unknown
Longitude
Unknown
Altitude
Unknown
Speed
Unknown
Apparent Right ascension
Unknown
Apparent Declination
Unknown
Sunlit
N/A
Visualization observer readout
Local Sidereal Time
17:02:00
Azimuth
Unknown
Elevation
Unknown
Doppler factor
Unknown
Orbital elements
Apogee altitude
897.662 km
Perigee altitude
769.752 km
Semi-major axis
7,211.844 km
Eccentricity
0.00887
Inclination
45.007°
RAAN
66.2945°
Arg. of periapsis
286.8502°
True anomaly
73.23394°
Mean anomaly
72.2628°
Eccentric anomaly
72.74804°
Mean motion
3.54384 °/min
Orbital period
101.58 mins
BSTAR
0.00014202
Loading maneuver chart data...
Computing Atmospheric mass density...
Loading historical data...
Loading historical data...
Loading historical data...
Loading historical data...
Loading historical data...
Loading historical data...
Loading historical data...
Other satellites on launch #76 in the year 2019 (2019-11-13 UTC)

Documentation

Showing up to 5 results
|